Time,TemperatureF,DewpointF,PressureIn,WindDirection,WindDirectionDegrees,WindSpeedMPH,WindSpeedGustMPH,Humidity,HourlyPrecipIn,Conditions,Clouds,dailyrainin,SoftwareType,DateUTC
2013-02-01 00:11:00,48.0,34.0,30.28,SSW,199,0.0,-999.0,59,-99.99,,,0.00,weatherlink.com 1.10,2013-02-01 06:11:00,
2013-02-01 00:26:00,48.2,34.0,30.29,SSW,193,0.0,-999.0,59,-99.99,,,0.00,weatherlink.com 1.10,2013-02-01 06:26:00,
2013-02-01 00:41:00,48.0,35.0,30.28,SSW,193,0.0,-999.0,60,-99.99,,,0.00,weatherlink.com 1.10,2013-02-01 06:41:00,
2013-02-01 00:56:00,47.7,35.0,30.27,SSW,193,0.0,-999.0,61,-99.99,,,0.00,weatherlink.com 1.10,2013-02-01 06:56:00,
2013-02-01 01:11:00,47.3,35.0,30.28,SSW,193,0.0,-999.0,62,-99.99,,,0.00,weatherlink.com 1.10,2013-02-01 07:11:00,
2013-02-01 01:26:00,47.0,35.0,30.27,SSW,193,0.0,-999.0,63,-99.99,,,0.00,weatherlink.com 1.10,2013-02-01 07:26:00,
2013-02-01 01:41:00,47.0,35.0,30.28,SSW,193,0.0,-999.0,64,-99.99,,,0.00,weatherlink.com 1.10,2013-02-01 07:41:00,
2013-02-01 01:56:00,47.1,35.0,30.28,SSW,193,0.0,-999.0,64,-99.99,,,0.00,weatherlink.com 1.10,2013-02-01 07:56:00,
2013-02-01 02:11:00,47.0,36.0,30.28,SSW,193,0.0,-999.0,65,-99.99,,,0.00,weatherlink.com 1.10,2013-02-01 08:11:00,
2013-02-01 02:26:00,46.8,36.0,30.28,SSW,193,0.0,-999.0,66,-99.99,,,0.00,weatherlink.com 1.10,2013-02-01 08:26:00,
2013-02-01 02:41:00,46.5,36.0,30.28,SSW,193,0.0,-999.0,67,-99.99,,,0.00,weatherlink.com 1.10,2013-02-01 08:41:00,
2013-02-01 02:56:00,46.4,36.0,30.28,SSW,193,0.0,-999.0,67,-99.99,,,0.00,weatherlink.com 1.10,2013-02-01 08:56:00,
2013-02-01 03:11:00,46.1,36.0,30.28,SSW,193,0.0,-999.0,68,-99.99,,,0.00,weatherlink.com 1.10,2013-02-01 09:11:00,
2013-02-01 03:26:00,45.8,36.0,30.29,SSW,193,0.0,-999.0,69,-99.99,,,0.00,weatherlink.com 1.10,2013-02-01 09:26:00,
2013-02-01 03:41:00,45.5,36.0,30.29,SSW,193,0.0,-999.0,70,-99.99,,,0.00,weatherlink.com 1.10,2013-02-01 09:41:00,
2013-02-01 03:56:00,45.2,36.0,30.29,South,174,0.0,-999.0,71,-99.99,,,0.00,weatherlink.com 1.10,2013-02-01 09:56:00,
2013-02-01 04:11:00,44.8,37.0,30.29,North,359,2.0,-999.0,74,-99.99,,,0.00,weatherlink.com 1.10,2013-02-01 10:11:00,
2013-02-01 04:26:00,44.8,37.0,30.32,NW,304,0.0,-999.0,75,-99.99,,,0.00,weatherlink.com 1.10,2013-02-01 10:26:00,
2013-02-01 04:41:00,44.9,37.0,30.32,NW,304,1.0,-999.0,75,-99.99,,,0.00,weatherlink.com 1.10,2013-02-01 10:41:00,
2013-02-01 04:56:00,44.9,37.0,30.31,NW,304,0.0,-999.0,75,-99.99,,,0.00,weatherlink.com 1.10,2013-02-01 10:56:00,
2013-02-01 05:11:00,44.9,37.0,30.32,NW,304,0.0,-999.0,75,-99.99,,,0.00,weatherlink.com 1.10,2013-02-01 11:11:00,
2013-02-01 05:26:00,44.8,37.0,30.32,NW,304,0.0,-999.0,75,-99.99,,,0.00,weatherlink.com 1.10,2013-02-01 11:26:00,
2013-02-01 05:41:00,44.5,37.0,30.33,NW,304,0.0,-999.0,75,-99.99,,,0.00,weatherlink.com 1.10,2013-02-01 11:41:00,
2013-02-01 05:56:00,44.2,37.0,30.32,NW,304,0.0,-999.0,75,-99.99,,,0.00,weatherlink.com 1.10,2013-02-01 11:56:00,
2013-02-01 06:11:00,43.8,36.0,30.32,NW,304,0.0,-999.0,75,-99.99,,,0.00,weatherlink.com 1.10,2013-02-01 12:11:00,
2013-02-01 06:26:00,43.3,36.0,30.33,NW,304,0.0,-999.0,76,-99.99,,,0.00,weatherlink.com 1.10,2013-02-01 12:26:00,
2013-02-01 06:41:00,43.1,36.0,30.34,NW,304,0.0,-999.0,77,-99.99,,,0.00,weatherlink.com 1.10,2013-02-01 12:41:00,
2013-02-01 06:56:00,42.9,36.0,30.34,NW,304,0.0,-999.0,78,-99.99,,,0.00,weatherlink.com 1.10,2013-02-01 12:56:00,
2013-02-01 07:11:00,42.6,36.0,30.34,NW,304,0.0,-999.0,78,-99.99,,,0.00,weatherlink.com 1.10,2013-02-01 13:11:00,
2013-02-01 07:26:00,42.5,36.0,30.34,NW,304,0.0,-999.0,79,-99.99,,,0.00,weatherlink.com 1.10,2013-02-01 13:26:00,
2013-02-01 07:41:00,42.9,36.0,30.34,North,1,0.0,-999.0,78,-99.99,,,0.00,weatherlink.com 1.10,2013-02-01 13:41:00,
2013-02-01 07:56:00,43.9,37.0,30.34,East,88,3.0,-999.0,76,-99.99,,,0.00,weatherlink.com 1.10,2013-02-01 13:56:00,
2013-02-01 08:11:00,44.9,37.0,30.36,NE,45,0.0,-999.0,74,-99.99,,,0.00,weatherlink.com 1.10,2013-02-01 14:11:00,
2013-02-01 08:26:00,45.5,37.0,30.37,North,10,1.0,-999.0,72,-99.99,,,0.00,weatherlink.com 1.10,2013-02-01 14:26:00,
2013-02-01 08:41:00,46.2,37.0,30.37,North,0,1.0,-999.0,71,-99.99,,,0.00,weatherlink.com 1.10,2013-02-01 14:41:00,
2013-02-01 08:56:00,46.5,37.0,30.38,NE,47,2.0,-999.0,69,-99.99,,,0.00,weatherlink.com 1.10,2013-02-01 14:56:00,
2013-02-01 09:11:00,47.9,37.0,30.39,ENE,66,0.0,-999.0,67,-99.99,,,0.00,weatherlink.com 1.10,2013-02-01 15:11:00,
2013-02-01 09:26:00,48.6,37.0,30.39,North,4,0.0,-999.0,65,-99.99,,,0.00,weatherlink.com 1.10,2013-02-01 15:26:00,
2013-02-01 09:41:00,49.5,36.0,30.39,North,350,4.0,-999.0,61,-99.99,,,0.00,weatherlink.com 1.10,2013-02-01 15:41:00,
2013-02-01 09:56:00,49.9,33.0,30.39,NE,35,5.0,-999.0,53,-99.99,,,0.00,weatherlink.com 1.10,2013-02-01 15:56:00,
2013-02-01 10:11:00,49.5,32.0,30.39,North,11,0.0,-999.0,51,-99.99,,,0.00,weatherlink.com 1.10,2013-02-01 16:11:00,
2013-02-01 10:26:00,50.4,32.0,30.39,NNE,31,1.0,-999.0,50,-99.99,,,0.00,weatherlink.com 1.10,2013-02-01 16:26:00,
2013-02-01 10:41:00,51.0,31.0,30.39,East,93,2.0,-999.0,47,-99.99,,,0.00,weatherlink.com 1.10,2013-02-01 16:41:00,
2013-02-01 10:56:00,51.3,29.0,30.39,ESE,103,3.0,-999.0,43,-99.99,,,0.00,weatherlink.com 1.10,2013-02-01 16:56:00,
2013-02-01 11:11:00,51.7,27.0,30.38,ESE,123,2.0,-999.0,38,-99.99,,,0.00,weatherlink.com 1.10,2013-02-01 17:11:00,
2013-02-01 11:26:00,52.2,27.0,30.38,ENE,58,2.0,-999.0,38,-99.99,,,0.00,weatherlink.com 1.10,2013-02-01 17:26:00,
2013-02-01 11:41:00,52.9,27.0,30.38,ENE,64,1.0,-999.0,37,-99.99,,,0.00,weatherlink.com 1.10,2013-02-01 17:41:00,
2013-02-01 11:56:00,53.3,27.0,30.37,NE,47,3.0,-999.0,36,-99.99,,,0.00,weatherlink.com 1.10,2013-02-01 17:56:00,
2013-02-01 12:11:00,54.7,27.0,30.36,NE,55,2.0,-999.0,34,-99.99,,,0.00,weatherlink.com 1.10,2013-02-01 18:11:00,
2013-02-01 12:26:00,56.2,28.0,30.35,NNE,24,3.0,-999.0,34,-99.99,,,0.00,weatherlink.com 1.10,2013-02-01 18:26:00,
2013-02-01 12:41:00,56.2,27.0,30.35,NNE,17,4.0,-999.0,32,-99.99,,,0.00,weatherlink.com 1.10,2013-02-01 18:41:00,
2013-02-01 12:56:00,56.5,27.0,30.34,North,1,2.0,-999.0,32,-99.99,,,0.00,weatherlink.com 1.10,2013-02-01 18:56:00,
2013-02-01 13:11:00,56.2,27.0,30.34,ESE,109,2.0,-999.0,33,-99.99,,,0.00,weatherlink.com 1.10,2013-02-01 19:11:00,
2013-02-01 13:26:00,56.9,26.0,30.33,East,83,3.0,-999.0,31,-99.99,,,0.00,weatherlink.com 1.10,2013-02-01 19:26:00,
2013-02-01 13:41:00,58.0,29.0,30.33,NE,48,2.0,-999.0,33,-99.99,,,0.00,weatherlink.com 1.10,2013-02-01 19:41:00,
2013-02-01 13:56:00,57.3,27.0,30.32,East,93,1.0,-999.0,32,-99.99,,,0.00,weatherlink.com 1.10,2013-02-01 19:56:00,
2013-02-01 14:11:00,58.0,29.0,30.32,East,79,1.0,-999.0,33,-99.99,,,0.00,weatherlink.com 1.10,2013-02-01 20:11:00,
2013-02-01 14:26:00,58.9,31.0,30.31,East,79,4.0,-999.0,35,-99.99,,,0.00,weatherlink.com 1.10,2013-02-01 20:26:00,
2013-02-01 14:41:00,59.3,30.0,30.30,North,11,3.0,-999.0,33,-99.99,,,0.00,weatherlink.com 1.10,2013-02-01 20:41:00,
2013-02-01 14:56:00,59.2,31.0,30.30,NE,41,0.0,-999.0,34,-99.99,,,0.00,weatherlink.com 1.10,2013-02-01 20:56:00,
2013-02-01 15:11:00,59.9,32.0,30.29,North,10,3.0,-999.0,35,-99.99,,,0.00,weatherlink.com 1.10,2013-02-01 21:11:00,
2013-02-01 15:26:00,59.3,32.0,30.29,NNE,31,3.0,-999.0,36,-99.99,,,0.00,weatherlink.com 1.10,2013-02-01 21:26:00,
2013-02-01 15:41:00,58.9,32.0,30.29,NNE,28,2.0,-999.0,37,-99.99,,,0.00,weatherlink.com 1.10,2013-02-01 21:41:00,
2013-02-01 15:56:00,58.3,31.0,30.29,NNE,21,2.0,-999.0,36,-99.99,,,0.00,weatherlink.com 1.10,2013-02-01 21:56:00,
2013-02-01 16:11:00,57.6,31.0,30.28,ESE,107,2.0,-999.0,36,-99.99,,,0.00,weatherlink.com 1.10,2013-02-01 22:11:00,
2013-02-01 16:26:00,57.0,30.0,30.29,NE,56,0.0,-999.0,36,-99.99,,,0.00,weatherlink.com 1.10,2013-02-01 22:26:00,
2013-02-01 16:41:00,56.6,29.0,30.29,East,96,0.0,-999.0,35,-99.99,,,0.00,weatherlink.com 1.10,2013-02-01 22:41:00,
2013-02-01 16:56:00,56.0,30.0,30.28,ENE,64,0.0,-999.0,37,-99.99,,,0.00,weatherlink.com 1.10,2013-02-01 22:56:00,
2013-02-01 17:11:00,55.7,30.0,30.28,NE,54,2.0,-999.0,37,-99.99,,,0.00,weatherlink.com 1.10,2013-02-01 23:11:00,
2013-02-01 17:26:00,55.1,29.0,30.28,East,83,2.0,-999.0,37,-99.99,,,0.00,weatherlink.com 1.10,2013-02-01 23:26:00,
2013-02-01 17:41:00,54.5,30.0,30.27,ENE,72,2.0,-999.0,39,-99.99,,,0.00,weatherlink.com 1.10,2013-02-01 23:41:00,
2013-02-01 17:56:00,53.9,30.0,30.27,ENE,72,1.0,-999.0,40,-99.99,,,0.00,weatherlink.com 1.10,2013-02-01 23:56:00,
2013-02-01 18:11:00,52.9,30.0,30.28,ENE,72,0.0,-999.0,41,-99.99,,,0.00,weatherlink.com 1.10,2013-02-02 00:11:00,
2013-02-01 18:26:00,51.6,30.0,30.27,ENE,72,0.0,-999.0,44,-99.99,,,0.00,weatherlink.com 1.10,2013-02-02 00:26:00,
2013-02-01 18:41:00,50.4,30.0,30.28,ENE,72,0.0,-999.0,45,-99.99,,,0.00,weatherlink.com 1.10,2013-02-02 00:41:00,
2013-02-01 18:56:00,49.4,30.0,30.27,ENE,71,0.0,-999.0,48,-99.99,,,0.00,weatherlink.com 1.10,2013-02-02 00:56:00,
2013-02-01 19:11:00,48.8,31.0,30.27,ENE,71,0.0,-999.0,50,-99.99,,,0.00,weatherlink.com 1.10,2013-02-02 01:11:00,
2013-02-01 19:26:00,48.5,31.0,30.27,ENE,71,0.0,-999.0,51,-99.99,,,0.00,weatherlink.com 1.10,2013-02-02 01:26:00,
2013-02-01 19:41:00,47.9,31.0,30.28,ENE,66,0.0,-999.0,52,-99.99,,,0.00,weatherlink.com 1.10,2013-02-02 01:41:00,
2013-02-01 19:56:00,47.6,31.0,30.28,ENE,66,0.0,-999.0,54,-99.99,,,0.00,weatherlink.com 1.10,2013-02-02 01:56:00,
2013-02-01 20:11:00,47.1,31.0,30.28,ENE,66,0.0,-999.0,54,-99.99,,,0.00,weatherlink.com 1.10,2013-02-02 02:11:00,
2013-02-01 20:25:00,47.0,30.0,30.28,ENE,69,0.0,-999.0,53,-99.99,,,0.00,weatherlink.com 1.10,2013-02-02 02:25:00,
2013-02-01 20:41:00,46.8,30.0,30.28,ENE,73,1.0,-999.0,53,-99.99,,,0.00,weatherlink.com 1.10,2013-02-02 02:41:00,
2013-02-01 20:56:00,46.7,30.0,30.28,ENE,78,0.0,-999.0,52,-99.99,,,0.00,weatherlink.com 1.10,2013-02-02 02:56:00,
2013-02-01 21:11:00,46.7,30.0,30.28,East,95,2.0,-999.0,52,-99.99,,,0.00,weatherlink.com 1.10,2013-02-02 03:11:00,
2013-02-01 21:25:00,46.5,30.0,30.28,ENE,71,0.0,-999.0,53,-99.99,,,0.00,weatherlink.com 1.10,2013-02-02 03:25:00,
2013-02-01 21:41:00,46.2,30.0,30.28,ENE,76,0.0,-999.0,53,-99.99,,,0.00,weatherlink.com 1.10,2013-02-02 03:41:00,
2013-02-01 21:56:00,45.7,29.0,30.28,ENE,76,0.0,-999.0,53,-99.99,,,0.00,weatherlink.com 1.10,2013-02-02 03:56:00,
2013-02-01 22:11:00,44.8,29.0,30.28,ENE,76,0.0,-999.0,55,-99.99,,,0.00,weatherlink.com 1.10,2013-02-02 04:11:00,
2013-02-01 22:26:00,44.1,29.0,30.28,ENE,76,0.0,-999.0,56,-99.99,,,0.00,weatherlink.com 1.10,2013-02-02 04:26:00,
2013-02-01 22:41:00,43.2,30.0,30.28,ENE,76,0.0,-999.0,59,-99.99,,,0.00,weatherlink.com 1.10,2013-02-02 04:41:00,
2013-02-01 22:56:00,42.3,30.0,30.29,ENE,76,0.0,-999.0,61,-99.99,,,0.00,weatherlink.com 1.10,2013-02-02 04:56:00,
2013-02-01 23:11:00,41.8,30.0,30.29,ENE,76,0.0,-999.0,64,-99.99,,,0.00,weatherlink.com 1.10,2013-02-02 05:11:00,
2013-02-01 23:26:00,41.3,30.0,30.29,ENE,76,0.0,-999.0,65,-99.99,,,0.00,weatherlink.com 1.10,2013-02-02 05:26:00,
2013-02-01 23:41:00,40.9,30.0,30.30,ENE,76,0.0,-999.0,66,-99.99,,,0.00,weatherlink.com 1.10,2013-02-02 05:41:00,
2013-02-01 23:56:00,40.5,30.0,30.29,ENE,76,0.0,-999.0,67,-99.99,,,0.00,weatherlink.com 1.10,2013-02-02 05:56:00,